User: anonymous   Login
Location: Esp�n
(42.4593°N, 0.2047°W)
Time: 17:36:49
(UTC+00:00)
Language:

Meteor 1-27 - Orbit

View from above orbital plane
View from above orbital plane
View from above satellite
View from above satellite

Ground track
Ground track

The orbit data is extracted from the following two-line orbital elements,

1  9903U 77024A   20227.54382604 -.00000001 +00000-0 -78169-5 0  9995
2  9903 081.2613 043.1228 0036519 270.2940 089.4046 14.08321636227356
Epoch (UTC): 14 August 2020 13:03:06
Eccentricity: 0.0036519
inclination: 81.2613°
perigee height: 838 km
apogee height: 891 km
right ascension of ascending node: 43.1228°
argument of perigee: 270.2940°
revolutions per day: 14.08321636
mean anomaly at epoch: 89.4046°
orbit number at epoch: 22735

The dashed part of the orbit path shows where the satellite is in the earth's shadow,  

DLR